Regional Weather Roundup
Issued by NWS

Home | Current Version | Previous Version | Text Only | Print | Product List | Glossary On
Versions: 1 2 3 4 5 6 7 8 9 10 11 12 13 14 15 16 17 18 19 20 21 22 23 24 25 26 27 28 29 30 31 32 33 34 35 36 37 38 39 40 41 42 43 44 45 46 47 48 49 50
000
ASUS42 KTBW 020416
RWRFL
FLORIDA REGIONAL WEATHER ROUNDUP
NATIONAL WEATHER SERVICE TAMPA BAY RUSKIN FL
1200 AM EDT THU APR 02 2015

NOTE: "FAIR" INDICATES FEW OR NO CLOUDS BELOW 12,000 FEET WITH NO
SIGNIFICANT WEATHER AND/OR OBSTRUCTIONS TO VISIBILITY.


FLZ001>010-012>015-112-114-115-020500-
PANHANDLE FLORIDA

CITY           SKY/WX    TMP DP  RH WIND       PRES   REMARKS
PENSACOLA      CLOUDY    68  66  93 S6        30.10S
PENSACOLA NAS  CLOUDY    71  68  90 S8        30.10R
MILTON NAS     CLOUDY    67  64  90 S6        30.11
CRESTVIEW      MOCLDY    66  62  87 S3        30.13R
DUKE FIELD     MOCLDY    65  62  89 S3        30.11R
VALPARAISO     MOCLDY    69  67  90 SW5       30.11S
MARY ESTHER    CLOUDY    69  64  85 S6        30.10S
TRI COUNTY       N/A     64  62  93 CALM      30.13R
PANAMA CITY    FAIR      65  63  93 CALM      30.12R
TYNDALL AFB    MOCLDY    69  67  94 SW6       30.12S
APALACHICOLA   MOCLDY    72  66  81 W6        30.13R

STATION/POSITION SKY/WX   TEMP    WIND        PRES    WAVE   SWELL
                          AIR SEA DIR/SP/G            HT/PER HT/PER
                          (F)     (DEG/KT/KT) (MB)    (FT/S) (FT/S)
30.1N   87.6W              71 71  160/  8/  8 1018.4S   2/ 4   2/ 4
29.2N   88.2W              73 72  170/ 16/ 17 1019.1F   3/ 4
28.8N   86.0W              73 75  210/  8/ 10 1020.6    2/ 8   2/ 8
PANAMA CITY BEAC           69 69  210/  7/  8 1019.6R
CAPE SAN BLAS    NOT AVBL
TOWER C                    70     230/  9/ 10 1020.4R
28.5N   84.5W              70 69  230/  4/  4 1020.9R   1/ 4   2/ 4

$$
FLZ011-016>038-118-127-128-134-139-239-020500-
NORTH FLORIDA

CITY           SKY/WX    TMP DP  RH WIND       PRES   REMARKS
MARIANNA       PTCLDY    67  64  90 SW3       30.12R
TALLAHASSEE    MOCLDY    67  59  75 CALM      30.12S
PERRY          MOCLDY    67  65  94 CALM      30.14R
CROSS CITY       N/A     66  64  93 SW3       30.14R
LAKE CITY      FAIR      63  63 100 CALM      30.16R
GAINESVILLE    MOCLDY    67  63  87 W3        30.16R
MAYPORT NAS    PTCLDY    63  61  93 W3        30.17R
JACKSONVILLE   PTCLDY    59  59 100 CALM      30.17S
JAX NAS        CLOUDY    70  64  81 E3        30.17S
JAX CRAIG      CLEAR     62  59  90 CALM      30.17R
JAX CECIL      CLEAR     63  63 100 CALM      30.16S
FERNANDINA BEA FAIR      64  63  94 CALM      30.16R
ST AUGUSTINE   PTCLDY    65  63  93 N5        30.16S

STATION/POSITION SKY/WX   TEMP    WIND        PRES    WAVE   SWELL
                          AIR SEA DIR/SP/G            HT/PER HT/PER
                          (F)     (DEG/KT/KT) (MB)    (FT/S) (FT/S)
SHELL POINT                71     270/  6/  9   N/A
KEATON BEACH               70     270/  8/ 10 1020.8R
CEDAR KEY                  70     280/  6/  8 1021.3R
FERNANDINA                 62 63   70/  2/  3 1020.7R
30.7N   81.3W                 63                N/A     2/ 3
MAYPORT                    65 63   80/  3/  5 1021.1R
31.4N   80.9W              64 62   70/  8/ 10 1022.4R   2/ 4   2/ 9
ST AUGUSTINE               65 63  360/  5/  6 1021.9R

$$
FLZ040-043>046-052-053-057-058-063-144-020500-
INTERIOR CENTRAL FLORIDA

CITY           SKY/WX    TMP DP  RH WIND       PRES   REMARKS
OCALA          PTCLDY    64  61  88 NE6       30.17R
THE VILLAGES     N/A     66  66 100 CALM      30.07R
LEESBURG       PTCLDY    64  62  93 CALM      30.17R
SANFORD        PTCLDY    68  62  81 NW7       30.15R
ORLANDO EXEC   PTCLDY    70  62  76 NW6       30.16R
ORLANDO INTL   PTCLDY    70  63  78 W3        30.16R
WINTER HAVEN   CLEAR     68  61  78 NW6       30.17S
LAKELAND       CLEAR     63  61  94 CALM      30.17S
BARTOW         FAIR      64  61  88 CALM      30.17S
OKEECHOBEE     CLEAR     63  61  94 CALM      30.15S

$$
FLZ041-047-054-059-064-141-147-020500-
EAST CENTRAL FLORIDA

CITY           SKY/WX    TMP DP  RH WIND       PRES   REMARKS
DAYTONA BEACH  MOCLDY    69  63  81 NW6       30.15R
DELAND           N/A    N/A N/A N/A CALM      30.15S
JFK SPACE CTR  PTCLDY    69  62  77 W3        30.13S
CAPE CANAVERAL PTCLDY    70  63  78 NW5       30.13S
PATRICK AFB    PTCLDY    72  62  71 N8        30.14
MELBOURNE      PTCLDY    71  60  68 NE5       30.15R
VERO BEACH     CLEAR     71  62  73 S7        30.15R
FT PIERCE      CLEAR     65  60  84 SW3       30.15R
STUART         MOCLDY    70  59  68 CALM      30.16R

STATION/POSITION SKY/WX   TEMP    WIND        PRES    WAVE   SWELL
                          AIR SEA DIR/SP/G            HT/PER HT/PER
                          (F)     (DEG/KT/KT) (MB)    (FT/S) (FT/S)
28.5N   80.2W              72 71  260/  6/  8 1021.4R
28.9N   78.5W              75 75  310/  2/  4 1020.8R
TRIDENT PIER               72 73  300/  5/  8 1021.1R
28.4N   80.5W                 72                N/A     1/11
27.5N   80.2W                 76                N/A     2/11

$$
FLZ050-056-061-142-242-148-248-149-249-151-251-155-255-
160-260-020500-
WEST CENTRAL FLORIDA

CITY           SKY/WX    TMP DP  RH WIND       PRES   REMARKS
CRYSTAL RIVER  FAIR      63  59  88 CALM      30.16S
INVERNESS      FAIR     N/A N/A N/A CALM      30.16S
BROOKSVILLE    PTCLDY    61  59  93 CALM      30.16S
ZEPHYRHILLS    FAIR      61  61 100 CALM      30.17S
CLEARWATER     CLEAR     66  64  93 CALM      30.16R
TAMPA INTL     CLEAR     70  62  76 CALM      30.17R
TAMPA EXEC     CLEAR     63  61  94 CALM      30.17S
PLANT CITY     CLEAR     64  63  94 CALM      30.18S
MACDILL AFB    CLEAR     67  64  91 W2        30.16R
PETER O KNIGHT CLEAR     70  64  83 CALM      30.17S
ST PETERSBURG  CLEAR     71  64  78 NW3       30.14R
SARASOTA       CLEAR     64  62  93 CALM      30.15R
VENICE         FAIR      70  66  88 N6        30.16R

STATION/POSITION SKY/WX   TEMP    WIND        PRES    WAVE   SWELL
                          AIR SEA DIR/SP/G            HT/PER HT/PER
                          (F)     (DEG/KT/KT) (MB)    (FT/S) (FT/S)
CEDAR KEY                  70     280/  6/  8 1021.3R
28.5N   84.5W              70 69  230/  4/  4 1020.9R   1/ 4   2/ 4
27.3N   84.2W                 73                N/A     1
CLEARWATER BEACH NOT AVBL
MIDDLE TAMPA BAY           71     300/  8/  9 1021.1R
VENICE                     71 74  360/  6/  8 1020.5S

$$
FLZ066-069-070-075>078-162-262-165-265-020500-
SOUTHWEST FLORIDA AND KEYS

CITY           SKY/WX    TMP DP  RH WIND       PRES   REMARKS
PUNTA GORDA    CLEAR     65  63  93 N3        30.17R
FT MYERS       CLEAR     69  64  84 N3        30.14F
SOUTHWEST INTL CLEAR     68  62  81 N6        30.14F
NAPLES         CLEAR     68  62  81 CALM      30.15S
MARCO ISLAND   PTCLDY    68  63  83 CALM      30.16R
IMMOKALEE      CLEAR    N/A N/A N/A CALM      30.16F
MARATHON       CLEAR     74  61  63 E6        30.15R
KEY WEST NAS   CLEAR     72  60  66 E9        30.15R
KEY WEST INTL  CLEAR     74  61  63 E7        30.15R

STATION/POSITION SKY/WX   TEMP    WIND        PRES    WAVE   SWELL
                          AIR SEA DIR/SP/G            HT/PER HT/PER
                          (F)     (DEG/KT/KT) (MB)    (FT/S) (FT/S)
VENICE                     71 74  360/  6/  8 1020.5S
NAPLES                     73 77  320/  6/  7 1020.8R
26.0N   85.6W              72 74  110/ 10/ 12 1020.4S   2/ 6   2/ 6
DRY TORTUGAS               73      80/  9/ 11 1020.3R
NW FL BAY                  76     150/  4/  6 1021.0
SAND KEY                   75     100/ 11/ 13 1020.6R
SOMBRERO KEY               75     100/  9/ 10 1021.5R
LONG KEY                   75 76  110/  8/  8 1021.7R
MOLASSES REEF              75 76   90/  7/  8 1020.9S

$$
FLZ067-068-071>074-168-172>174-020500-
SOUTHEAST FLORIDA

CITY           SKY/WX    TMP DP  RH WIND       PRES   REMARKS
W PALM BEACH   PTCLDY    72  62  71 S7        30.15R
FT LAUDER-EXEC CLEAR     72  61  68 CALM      30.16R
FT LAUDERDALE  PTCLDY    73  62  68 W5        30.16R
POMPANO BEACH  CLEAR     70  60  70 CALM      30.16R
PEMBROKE PINES CLEAR     72  61  68 W3        30.17R
OPA LOCKA      CLEAR     70  62  76 W5        30.16S
MIAMI          PTCLDY    72  62  71 W3        30.16S
WEST KENDALL   CLEAR     64  60  87 NW3       30.16S
HOMESTEAD      CLEAR     68  64  88 N2        30.16R

STATION/POSITION SKY/WX   TEMP    WIND        PRES    WAVE   SWELL
                          AIR SEA DIR/SP/G            HT/PER HT/PER
                          (F)     (DEG/KT/KT) (MB)    (FT/S) (FT/S)
PORT EVERGLADES            74     240/  2/  4 1021.1R
VIRGINIA KEY               75 77  180/  4/  5 1020.7R
LAKE WORTH                 75 77  170/ 11/ 12 1020.6R
SETTLEMENT POINT           72     160/  4/  4 1021.9R

$$



USA.gov is the U.S. government's official web portal to all federal, state and local government web resources and services.